Japanese version Home page |
Updated on November 3, 2020 |
Profile |
Orbital ElementsEpoch 2005 July 9.0 TT = JDT 2453560.5 T 2005 July 8.02465 TT Bell q 1.1960365 (2000.0) P Q n 0.19741662 Peri. 328.43514 -0.33963603 +0.92292784 a 2.9211032 Node 281.17070 -0.81990130 -0.38494453 e 0.5905532 Incl. 10.64657 -0.46087875 +0.00468013 P 4.99 From 93 observations 2005 July 28-2020 Feb. 1, mean residual 0".6.
|
Magnitudes Graphm1 = 19.0 + 5 log d + 10.0 log r
|
The orbital elements are published on M.P.E.C. 2020-C98.
|